Regional Weather Roundup
Issued by NWS Nashville, TN

Home | Current Version | Previous Version | Text Only | Print | Product List | Glossary On
Versions: 1 2 3 4 5 6 7 8 9 10 11 12 13 14 15 16 17 18 19 20 21 22 23 24 25 26 27 28 29 30 31 32 33 34 35 36 37 38 39 40 41 42 43 44 45 46 47 48 49 50
000
ASUS44 KOHX 091410
RWROHX
MIDDLE TENNESSEE HOURLY WEATHER ROUNDUP
NATIONAL WEATHER SERVICE NASHVILLE TN
800 AM CST TUE FEB 09 2016

NOTE: "FAIR" INDICATES FEW OR NO CLOUDS BELOW 12,000 FEET WITH
NO SIGNIFICANT WEATHER AND/OR OBSTRUCTIONS TO VISIBILITY.

* THESE REPORTS ARE NOT UNDER NWS QUALITY CONTROL AND MAY NOT
  REPORT WEATHER SUCH AS PRECIPITATION AND FOG.


TNZ005>011-023>034-057-059-062>066-078-080-091500
...NORTHERN MIDDLE TENNESSEE...

CITY           SKY/WX    TMP DP  RH WIND       PRES   REMARKS
CLARKSVILLE    LGT SNOW  23  18  81 NW9       29.90R WCI  13
CROSSVILLE     LGT SNOW  20  15  81 W7        29.78S VSB 1   WCI  11
DICKSON        CLOUDY    23  21  93 W6        29.87R WCI  16
LEBANON        CLOUDY    24  16  71 W9        29.86R WCI  14
LIVINGSTON     CLOUDY    20  14  77 NW8       29.81R WCI  10
NASHVILLE      LGT SNOW  26  19  74 VRB6      29.90R WCI  19
PORTLAND       CLOUDY   N/A N/A N/A NW3       29.87R
ROCKWOOD       CLOUDY    21  15  78 NW5       29.78S WCI  15
SMYRNA         LGT SNOW  25  19  80 NW6       29.91S WCI  18
SPARTA         CLOUDY    23  19  86 W5        29.84R WCI  17
$$
TNZ056-058-060-061-075>077-079-093>097-091500
...SOUTHERN MIDDLE TENNESSEE...

CITY           SKY/WX    TMP DP  RH WIND       PRES   REMARKS
COLUMBIA       CLOUDY    27  27 100 W3        29.87S
FAYETTEVILLE   PTSUNNY   28  25  86 W8        29.87S FOG     WCI  20
LEWISBURG      CLOUDY    26  21  81 W3        29.89R
MCMINNVILLE    CLOUDY    23  21  93 N6        29.85R WCI  16
SHELBYVILLE    CLOUDY    27  25  93 NW7       29.89R WCI  19
TULLAHOMA      CLOUDY    25  25 100 W9        29.86R WCI  15
WINCHESTER     CLOUDY    25  23  93 NW3       29.86R
$$


...KEY TO REMARKS...
VSB - VISIBILITY IN MILES
WCI - WIND CHILL INDEX
HX  - HEAT INDEX




USA.gov is the U.S. government's official web portal to all federal, state and local government web resources and services.